Time,TemperatureF,DewpointF,PressureIn,WindDirection,WindDirectionDegrees,WindSpeedMPH,WindSpeedGustMPH,Humidity,HourlyPrecipIn,Conditions,Clouds,dailyrainin,SolarRadiationWatts/m^2,SoftwareType,DateUTC
2013-04-22 00:01:00,37.0,25.7,30.66,North,5,0.0,2.0,63,0.00,,,0.00,0.0,meteohub,2013-04-22 04:01:00,
2013-04-22 00:02:00,37.0,24.8,30.66,North,5,0.0,2.0,61,0.00,,,0.00,0.0,meteohub,2013-04-22 04:02:00,
2013-04-22 00:05:00,37.2,25.0,30.66,North,5,0.0,1.0,61,0.00,,,0.00,0.0,meteohub,2013-04-22 04:05:00,
2013-04-22 00:08:00,37.2,24.6,30.66,North,5,0.0,1.0,60,0.00,,,0.00,0.0,meteohub,2013-04-22 04:08:00,
2013-04-22 00:13:00,37.4,25.9,30.66,North,5,0.0,1.0,63,0.00,,,0.00,0.0,meteohub,2013-04-22 04:13:00,
2013-04-22 00:18:00,37.6,25.3,30.66,NNW,345,0.0,2.0,61,0.00,,,0.00,0.0,meteohub,2013-04-22 04:18:00,
2013-04-22 00:23:00,37.4,24.8,30.66,NNW,345,0.0,2.0,60,0.00,,,0.00,0.0,meteohub,2013-04-22 04:23:00,
2013-04-22 00:28:00,37.6,24.1,30.66,NNW,344,0.0,2.0,58,0.00,,,0.00,0.0,meteohub,2013-04-22 04:28:00,
2013-04-22 00:33:00,37.6,25.0,30.66,NNW,344,0.0,2.0,60,0.00,,,0.00,0.0,meteohub,2013-04-22 04:33:00,
2013-04-22 00:38:00,37.6,24.6,30.66,NNW,344,0.0,2.0,59,0.00,,,0.00,0.0,meteohub,2013-04-22 04:38:00,
2013-04-22 00:43:00,37.8,24.3,30.67,NNW,344,0.0,2.0,58,0.00,,,0.00,0.0,meteohub,2013-04-22 04:43:00,
2013-04-22 00:48:00,37.8,24.8,30.67,NNW,344,0.0,1.0,59,0.00,,,0.00,0.0,meteohub,2013-04-22 04:48:00,
2013-04-22 00:54:00,37.8,25.5,30.67,NNW,344,0.0,1.0,61,0.00,,,0.00,0.0,meteohub,2013-04-22 04:54:00,
2013-04-22 00:59:00,37.6,25.3,30.67,NNW,344,0.0,1.0,61,0.00,,,0.00,0.0,meteohub,2013-04-22 04:59:00,
2013-04-22 01:04:00,37.2,25.0,30.67,NNW,344,0.0,1.0,61,0.00,,,0.00,0.0,meteohub,2013-04-22 05:04:00,
2013-04-22 01:09:00,37.0,24.4,30.67,NNW,344,0.0,2.0,60,0.00,,,0.00,0.0,meteohub,2013-04-22 05:09:00,
2013-04-22 01:14:00,37.0,25.7,30.67,NNW,344,0.0,2.0,63,0.00,,,0.00,0.0,meteohub,2013-04-22 05:14:00,
2013-04-22 01:19:00,36.9,25.9,30.67,NNW,344,0.0,1.0,64,0.00,,,0.00,0.0,meteohub,2013-04-22 05:19:00,
2013-04-22 01:24:00,36.9,24.6,30.67,NNW,344,0.0,1.0,61,0.00,,,0.00,0.0,meteohub,2013-04-22 05:24:00,
2013-04-22 01:29:00,36.7,25.7,30.67,NNW,344,0.0,1.0,64,0.00,,,0.00,0.0,meteohub,2013-04-22 05:29:00,
2013-04-22 01:34:00,36.7,25.3,30.67,NNW,344,0.0,1.0,63,0.00,,,0.00,0.0,meteohub,2013-04-22 05:34:00,
2013-04-22 01:39:00,36.5,23.9,30.67,NNW,344,0.0,1.0,60,0.00,,,0.00,0.0,meteohub,2013-04-22 05:39:00,
2013-04-22 01:45:00,36.3,26.4,30.66,NNW,344,0.0,1.0,67,0.00,,,0.00,0.0,meteohub,2013-04-22 05:45:00,
2013-04-22 01:50:00,36.1,25.5,30.66,NNW,344,0.0,1.0,65,0.00,,,0.00,0.0,meteohub,2013-04-22 05:50:00,
2013-04-22 01:55:00,36.1,25.9,30.66,NNW,344,0.0,1.0,66,0.00,,,0.00,0.0,meteohub,2013-04-22 05:55:00,
2013-04-22 02:00:00,36.0,27.1,30.66,NNW,344,0.0,1.0,70,0.00,,,0.00,0.0,meteohub,2013-04-22 06:00:00,
2013-04-22 02:05:00,36.0,27.1,30.66,NNW,344,0.0,0.0,70,0.00,,,0.00,0.0,meteohub,2013-04-22 06:05:00,
2013-04-22 02:10:00,36.0,28.2,30.66,NNW,344,0.0,1.0,73,0.00,,,0.00,0.0,meteohub,2013-04-22 06:10:00,
2013-04-22 02:15:00,35.8,27.7,30.66,NNW,344,0.0,1.0,72,0.00,,,0.00,0.0,meteohub,2013-04-22 06:15:00,
2013-04-22 02:20:00,35.6,27.9,30.67,NNW,344,0.0,1.0,73,0.00,,,0.00,0.0,meteohub,2013-04-22 06:20:00,
2013-04-22 02:25:00,35.4,27.0,30.66,NNW,344,0.0,0.0,71,0.00,,,0.00,0.0,meteohub,2013-04-22 06:25:00,
2013-04-22 02:30:00,35.2,27.1,30.66,NNW,344,0.0,0.0,72,0.00,,,0.00,0.0,meteohub,2013-04-22 06:30:00,
2013-04-22 02:35:00,35.1,26.6,30.66,NNW,344,0.0,0.0,71,0.00,,,0.00,0.0,meteohub,2013-04-22 06:35:00,
2013-04-22 02:40:00,35.1,27.0,30.66,NNW,344,0.0,1.0,72,0.00,,,0.00,0.0,meteohub,2013-04-22 06:40:00,
2013-04-22 02:45:00,34.9,26.8,30.67,NNW,344,0.0,1.0,72,0.00,,,0.00,0.0,meteohub,2013-04-22 06:45:00,
2013-04-22 02:51:00,34.5,26.4,30.66,NNW,344,0.0,1.0,72,0.00,,,0.00,0.0,meteohub,2013-04-22 06:51:00,
2013-04-22 02:56:00,34.5,26.4,30.66,NNW,344,0.0,2.0,72,0.00,,,0.00,0.0,meteohub,2013-04-22 06:56:00,
2013-04-22 03:01:00,34.3,25.9,30.66,NNW,344,0.0,2.0,71,0.00,,,0.00,0.0,meteohub,2013-04-22 07:01:00,
2013-04-22 03:06:00,34.3,27.0,30.66,NNW,344,0.0,2.0,74,0.00,,,0.00,0.0,meteohub,2013-04-22 07:06:00,
2013-04-22 03:11:00,34.3,26.2,30.66,NNW,344,0.0,0.0,72,0.00,,,0.00,0.0,meteohub,2013-04-22 07:11:00,
2013-04-22 03:16:00,34.3,26.6,30.67,NNW,344,0.0,0.0,73,0.00,,,0.00,0.0,meteohub,2013-04-22 07:16:00,
2013-04-22 03:21:00,34.2,27.1,30.67,NNW,344,0.0,0.0,75,0.00,,,0.00,0.0,meteohub,2013-04-22 07:21:00,
2013-04-22 03:26:00,34.0,25.9,30.67,NNW,344,0.0,0.0,72,0.00,,,0.00,0.0,meteohub,2013-04-22 07:26:00,
2013-04-22 03:31:00,34.0,26.2,30.67,NNW,344,0.0,0.0,73,0.00,,,0.00,0.0,meteohub,2013-04-22 07:31:00,
2013-04-22 03:36:00,33.6,25.5,30.67,NNW,344,0.0,0.0,72,0.00,,,0.00,0.0,meteohub,2013-04-22 07:36:00,
2013-04-22 03:41:00,33.4,24.8,30.67,NNW,344,1.0,1.0,70,0.00,,,0.00,0.0,meteohub,2013-04-22 07:41:00,
2013-04-22 03:46:00,33.4,26.1,30.67,NNW,344,0.0,2.0,74,0.00,,,0.00,0.0,meteohub,2013-04-22 07:46:00,
2013-04-22 03:51:00,33.3,25.5,30.67,NNW,344,0.0,2.0,73,0.00,,,0.00,0.0,meteohub,2013-04-22 07:51:00,
2013-04-22 03:56:00,33.1,26.4,30.67,NNW,344,0.0,2.0,76,0.00,,,0.00,0.0,meteohub,2013-04-22 07:56:00,
2013-04-22 04:01:00,33.1,26.6,30.67,NNW,344,0.0,1.0,77,0.00,,,0.00,0.0,meteohub,2013-04-22 08:01:00,
2013-04-22 04:07:00,32.9,26.4,30.68,NNW,344,0.0,1.0,77,0.00,,,0.00,0.0,meteohub,2013-04-22 08:07:00,
2013-04-22 04:12:00,32.7,26.2,30.68,NNW,344,0.0,1.0,77,0.00,,,0.00,0.0,meteohub,2013-04-22 08:12:00,
2013-04-22 04:17:00,32.7,26.2,30.68,NNW,344,0.0,0.0,77,0.00,,,0.00,0.0,meteohub,2013-04-22 08:17:00,
2013-04-22 04:22:00,32.5,25.9,30.67,NNW,344,0.0,0.0,76,0.00,,,0.00,0.0,meteohub,2013-04-22 08:22:00,
2013-04-22 04:27:00,32.5,25.9,30.67,NNW,344,0.0,0.0,76,0.00,,,0.00,0.0,meteohub,2013-04-22 08:27:00,
2013-04-22 04:32:00,32.5,26.1,30.68,NNW,344,0.0,0.0,77,0.00,,,0.00,0.0,meteohub,2013-04-22 08:32:00,
2013-04-22 04:37:00,32.4,25.3,30.68,NNW,344,0.0,0.0,75,0.00,,,0.00,0.0,meteohub,2013-04-22 08:37:00,
2013-04-22 04:42:00,32.4,25.7,30.68,NNW,344,0.0,0.0,76,0.00,,,0.00,0.0,meteohub,2013-04-22 08:42:00,
2013-04-22 04:47:00,32.2,26.4,30.68,NNW,344,0.0,0.0,79,0.00,,,0.00,0.0,meteohub,2013-04-22 08:47:00,
2013-04-22 04:52:00,32.2,26.4,30.68,NNW,344,0.0,0.0,79,0.00,,,0.00,0.0,meteohub,2013-04-22 08:52:00,
2013-04-22 04:57:00,32.2,26.8,30.68,NNW,344,0.0,0.0,80,0.00,,,0.00,0.0,meteohub,2013-04-22 08:57:00,
2013-04-22 05:02:00,32.0,27.1,30.68,NNW,344,0.0,0.0,82,0.00,,,0.00,0.0,meteohub,2013-04-22 09:02:00,
2013-04-22 05:07:00,31.8,27.0,30.69,NNW,344,0.0,0.0,82,0.00,,,0.00,0.0,meteohub,2013-04-22 09:07:00,
2013-04-22 05:12:00,31.8,27.0,30.69,NNW,344,0.0,0.0,82,0.00,,,0.00,0.0,meteohub,2013-04-22 09:12:00,
2013-04-22 05:17:00,31.8,27.3,30.69,NNW,344,0.0,0.0,83,0.00,,,0.00,0.0,meteohub,2013-04-22 09:17:00,
2013-04-22 05:22:00,31.8,27.3,30.69,NNW,344,0.0,0.0,83,0.00,,,0.00,0.0,meteohub,2013-04-22 09:22:00,
2013-04-22 05:27:00,31.6,26.8,30.69,NNW,344,0.0,0.0,82,0.00,,,0.00,0.0,meteohub,2013-04-22 09:27:00,
2013-04-22 05:32:00,31.6,26.8,30.69,NNW,344,0.0,0.0,82,0.00,,,0.00,0.0,meteohub,2013-04-22 09:32:00,
2013-04-22 05:37:00,31.6,27.1,30.70,NNW,344,0.0,0.0,83,0.00,,,0.00,0.0,meteohub,2013-04-22 09:37:00,
2013-04-22 05:42:00,31.8,27.3,30.70,NNW,344,0.0,0.0,83,0.00,,,0.00,0.0,meteohub,2013-04-22 09:42:00,
2013-04-22 05:47:00,31.8,27.0,30.70,NNW,344,0.0,0.0,82,0.00,,,0.00,0.0,meteohub,2013-04-22 09:47:00,
2013-04-22 05:52:00,31.8,27.0,30.71,NNW,344,0.0,0.0,82,0.00,,,0.00,0.0,meteohub,2013-04-22 09:52:00,
2013-04-22 05:57:00,32.0,26.8,30.70,NNW,344,0.0,0.0,81,0.00,,,0.00,0.0,meteohub,2013-04-22 09:57:00,
2013-04-22 06:02:00,32.4,27.1,30.71,NNW,344,0.0,0.0,81,0.00,,,0.00,0.0,meteohub,2013-04-22 10:02:00,
2013-04-22 06:07:00,32.4,27.1,30.70,NNW,344,0.0,0.0,81,0.00,,,0.00,0.0,meteohub,2013-04-22 10:07:00,
2013-04-22 06:12:00,32.5,27.7,30.70,NNW,344,0.0,0.0,82,0.00,,,0.00,0.0,meteohub,2013-04-22 10:12:00,
2013-04-22 06:17:00,32.7,27.5,30.70,NNW,344,0.0,0.0,81,0.00,,,0.00,7.0,meteohub,2013-04-22 10:17:00,
2013-04-22 06:23:00,33.1,27.5,30.70,NNW,344,0.0,0.0,80,0.00,,,0.00,12.0,meteohub,2013-04-22 10:23:00,
2013-04-22 06:28:00,33.1,27.0,30.71,NNW,344,0.0,0.0,78,0.00,,,0.00,16.0,meteohub,2013-04-22 10:28:00,
2013-04-22 06:33:00,33.1,27.3,30.71,NNW,344,0.0,0.0,79,0.00,,,0.00,19.0,meteohub,2013-04-22 10:33:00,
2013-04-22 06:38:00,33.3,27.1,30.71,NNW,344,0.0,0.0,78,0.00,,,0.00,23.0,meteohub,2013-04-22 10:38:00,
2013-04-22 06:43:00,33.3,27.1,30.71,NNW,344,0.0,0.0,78,0.00,,,0.00,25.0,meteohub,2013-04-22 10:43:00,
2013-04-22 06:48:00,33.3,27.5,30.71,NNW,344,0.0,0.0,79,0.00,,,0.00,28.0,meteohub,2013-04-22 10:48:00,
2013-04-22 06:53:00,33.3,26.6,30.71,NNW,344,0.0,0.0,76,0.00,,,0.00,35.0,meteohub,2013-04-22 10:53:00,
2013-04-22 06:58:00,33.3,26.8,30.71,NNW,344,0.0,0.0,77,0.00,,,0.00,42.0,meteohub,2013-04-22 10:58:00,
2013-04-22 07:03:00,33.4,27.7,30.71,NNW,344,0.0,0.0,79,0.00,,,0.00,53.0,meteohub,2013-04-22 11:03:00,
2013-04-22 07:08:00,33.6,28.4,30.71,NNW,344,0.0,0.0,81,0.00,,,0.00,54.0,meteohub,2013-04-22 11:08:00,
2013-04-22 07:13:00,33.6,28.8,30.71,NNW,344,0.0,0.0,82,0.00,,,0.00,54.0,meteohub,2013-04-22 11:13:00,
2013-04-22 07:18:00,34.0,28.8,30.71,NNW,344,0.0,0.0,81,0.00,,,0.00,58.0,meteohub,2013-04-22 11:18:00,
2013-04-22 07:23:00,34.2,28.9,30.71,NNW,344,0.0,0.0,81,0.00,,,0.00,60.0,meteohub,2013-04-22 11:23:00,
2013-04-22 07:28:00,34.3,28.8,30.71,NNW,344,0.0,0.0,80,0.00,,,0.00,60.0,meteohub,2013-04-22 11:28:00,
2013-04-22 07:34:00,34.5,28.9,30.71,NNW,344,0.0,0.0,80,0.00,,,0.00,63.0,meteohub,2013-04-22 11:34:00,
2013-04-22 07:39:00,34.9,29.3,30.71,NNW,344,0.0,0.0,80,0.00,,,0.00,72.0,meteohub,2013-04-22 11:39:00,
2013-04-22 07:44:00,35.2,28.0,30.71,NNW,344,0.0,0.0,75,0.00,,,0.00,100.0,meteohub,2013-04-22 11:44:00,
2013-04-22 07:49:00,36.0,29.1,30.71,NNW,344,0.0,0.0,76,0.00,,,0.00,109.0,meteohub,2013-04-22 11:49:00,
2013-04-22 07:54:00,36.5,29.3,30.71,NNW,344,0.0,0.0,75,0.00,,,0.00,137.0,meteohub,2013-04-22 11:54:00,
2013-04-22 07:59:00,37.2,26.6,30.71,NNW,344,0.0,0.0,65,0.00,,,0.00,84.0,meteohub,2013-04-22 11:59:00,
2013-04-22 08:04:00,38.1,26.2,30.71,NNW,344,0.0,0.0,62,0.00,,,0.00,111.0,meteohub,2013-04-22 12:04:00,
2013-04-22 08:09:00,39.0,26.8,30.71,NNW,345,0.0,1.0,61,0.00,,,0.00,132.0,meteohub,2013-04-22 12:09:00,
2013-04-22 08:14:00,39.7,26.6,30.71,NNW,345,1.0,1.0,59,0.00,,,0.00,181.0,meteohub,2013-04-22 12:14:00,
2013-04-22 08:19:00,40.5,27.3,30.71,NNW,345,0.0,2.0,59,0.00,,,0.00,162.0,meteohub,2013-04-22 12:19:00,
2013-04-22 08:24:00,41.0,27.9,30.71,NNW,345,0.0,2.0,59,0.00,,,0.00,185.0,meteohub,2013-04-22 12:24:00,
2013-04-22 08:29:00,41.5,26.6,30.71,ENE,75,1.0,2.0,55,0.00,,,0.00,202.0,meteohub,2013-04-22 12:29:00,
2013-04-22 08:34:00,42.1,27.9,30.71,ENE,76,0.0,2.0,57,0.00,,,0.00,251.0,meteohub,2013-04-22 12:34:00,
2013-04-22 08:39:00,42.3,28.0,30.71,ENE,76,0.0,2.0,57,0.00,,,0.00,352.0,meteohub,2013-04-22 12:39:00,
2013-04-22 08:45:00,42.8,26.8,30.72,East,79,0.0,2.0,53,0.00,,,0.00,367.0,meteohub,2013-04-22 12:45:00,
2013-04-22 08:50:00,43.2,26.8,30.71,East,83,0.0,2.0,52,0.00,,,0.00,350.0,meteohub,2013-04-22 12:50:00,
2013-04-22 08:55:00,43.5,27.1,30.71,East,83,0.0,2.0,52,0.00,,,0.00,376.0,meteohub,2013-04-22 12:55:00,
2013-04-22 09:00:00,44.1,28.0,30.71,NE,49,1.0,2.0,53,0.00,,,0.00,392.0,meteohub,2013-04-22 13:00:00,
2013-04-22 09:05:00,44.2,27.7,30.71,NE,45,1.0,2.0,52,0.00,,,0.00,441.0,meteohub,2013-04-22 13:05:00,
2013-04-22 09:10:00,44.6,27.5,30.71,ESE,110,0.0,3.0,51,0.00,,,0.00,487.0,meteohub,2013-04-22 13:10:00,
2013-04-22 09:15:00,45.3,28.2,30.71,SSW,209,1.0,4.0,51,0.00,,,0.00,461.0,meteohub,2013-04-22 13:15:00,
2013-04-22 09:20:00,46.2,29.1,30.71,SSW,199,0.0,4.0,51,0.00,,,0.00,469.0,meteohub,2013-04-22 13:20:00,
2013-04-22 09:25:00,46.8,28.0,30.71,WSW,258,3.0,4.0,48,0.00,,,0.00,501.0,meteohub,2013-04-22 13:25:00,
2013-04-22 09:30:00,46.8,28.0,30.71,SW,216,0.0,4.0,48,0.00,,,0.00,490.0,meteohub,2013-04-22 13:30:00,
2013-04-22 09:35:00,47.3,27.5,30.71,WSW,242,1.0,4.0,46,0.00,,,0.00,504.0,meteohub,2013-04-22 13:35:00,
2013-04-22 09:41:00,47.7,27.3,30.72,ESE,109,0.0,4.0,45,0.00,,,0.00,485.0,meteohub,2013-04-22 13:41:00,
2013-04-22 09:46:00,47.7,27.9,30.72,SE,144,0.0,4.0,46,0.00,,,0.00,541.0,meteohub,2013-04-22 13:46:00,
2013-04-22 09:51:00,48.0,28.2,30.72,NNW,340,0.0,4.0,46,0.00,,,0.00,529.0,meteohub,2013-04-22 13:51:00,
2013-04-22 09:56:00,48.0,26.1,30.72,NE,42,0.0,4.0,42,0.00,,,0.00,561.0,meteohub,2013-04-22 13:56:00,
2013-04-22 10:01:00,48.4,27.0,30.73,South,178,0.0,4.0,43,0.00,,,0.00,594.0,meteohub,2013-04-22 14:01:00,
2013-04-22 10:06:00,48.7,28.4,30.73,ENE,66,1.0,4.0,45,0.00,,,0.00,533.0,meteohub,2013-04-22 14:06:00,
2013-04-22 10:11:00,48.9,27.3,30.73,NNE,28,0.0,4.0,43,0.00,,,0.00,594.0,meteohub,2013-04-22 14:11:00,
2013-04-22 10:16:00,48.9,28.0,30.73,SSW,205,0.0,7.0,44,0.00,,,0.00,566.0,meteohub,2013-04-22 14:16:00,
2013-04-22 10:21:00,49.3,28.2,30.72,SSE,150,0.0,7.0,44,0.00,,,0.00,613.0,meteohub,2013-04-22 14:21:00,
2013-04-22 10:26:00,49.5,27.9,30.72,ENE,57,1.0,7.0,43,0.00,,,0.00,645.0,meteohub,2013-04-22 14:26:00,
2013-04-22 10:31:00,49.3,27.7,30.72,ENE,65,2.0,5.0,43,0.00,,,0.00,652.0,meteohub,2013-04-22 14:31:00,
2013-04-22 10:37:00,49.3,27.1,30.71,WSW,242,1.0,5.0,42,0.00,,,0.00,661.0,meteohub,2013-04-22 14:37:00,
2013-04-22 10:42:00,49.5,28.4,30.71,SW,228,0.0,6.0,44,0.00,,,0.00,689.0,meteohub,2013-04-22 14:42:00,
2013-04-22 10:47:00,49.6,27.0,30.71,NW,321,2.0,6.0,41,0.00,,,0.00,664.0,meteohub,2013-04-22 14:47:00,
2013-04-22 10:52:00,49.3,27.7,30.70,SW,227,1.0,6.0,43,0.00,,,0.00,631.0,meteohub,2013-04-22 14:52:00,
2013-04-22 10:57:00,49.5,26.1,30.70,WSW,243,0.0,5.0,40,0.00,,,0.00,705.0,meteohub,2013-04-22 14:57:00,
2013-04-22 11:02:00,49.6,25.7,30.70,NNW,331,0.0,4.0,39,0.00,,,0.00,733.0,meteohub,2013-04-22 15:02:00,
2013-04-22 11:07:00,49.6,27.5,30.70,NNE,14,1.0,4.0,42,0.00,,,0.00,780.0,meteohub,2013-04-22 15:07:00,
2013-04-22 11:12:00,49.6,26.2,30.70,WSW,255,0.0,4.0,40,0.00,,,0.00,756.0,meteohub,2013-04-22 15:12:00,
2013-04-22 11:17:00,50.0,27.1,30.69,NNE,17,2.0,3.0,41,0.00,,,0.00,610.0,meteohub,2013-04-22 15:17:00,
2013-04-22 11:22:00,50.4,27.5,30.69,East,82,0.0,3.0,41,0.00,,,0.00,754.0,meteohub,2013-04-22 15:22:00,
2013-04-22 11:27:00,51.1,26.4,30.69,NE,39,2.0,5.0,38,0.00,,,0.00,840.0,meteohub,2013-04-22 15:27:00,
2013-04-22 11:32:00,51.1,26.4,30.68,NNW,343,0.0,5.0,38,0.00,,,0.00,837.0,meteohub,2013-04-22 15:32:00,
2013-04-22 11:37:00,51.3,25.9,30.68,SW,229,0.0,5.0,37,0.00,,,0.00,821.0,meteohub,2013-04-22 15:37:00,
2013-04-22 11:42:00,51.4,26.6,30.67,East,80,2.0,3.0,38,0.00,,,0.00,684.0,meteohub,2013-04-22 15:42:00,
2013-04-22 11:47:00,52.0,26.6,30.67,SE,127,0.0,8.0,37,0.00,,,0.00,900.0,meteohub,2013-04-22 15:47:00,
2013-04-22 11:52:00,52.7,25.2,30.67,South,186,0.0,8.0,34,0.00,,,0.00,898.0,meteohub,2013-04-22 15:52:00,
2013-04-22 11:57:00,52.3,24.8,30.66,SW,231,1.0,8.0,34,0.00,,,0.00,872.0,meteohub,2013-04-22 15:57:00,
2013-04-22 12:02:00,52.5,25.0,30.66,NNE,32,2.0,4.0,34,0.00,,,0.00,853.0,meteohub,2013-04-22 16:02:00,
2013-04-22 12:07:00,52.5,25.7,30.66,WNW,293,0.0,4.0,35,0.00,,,0.00,865.0,meteohub,2013-04-22 16:07:00,
2013-04-22 12:12:00,53.1,24.8,30.66,SSE,160,1.0,4.0,33,0.00,,,0.00,814.0,meteohub,2013-04-22 16:12:00,
2013-04-22 12:17:00,53.6,25.2,30.66,NE,55,2.0,4.0,33,0.00,,,0.00,821.0,meteohub,2013-04-22 16:17:00,
2013-04-22 12:22:00,53.6,25.2,30.66,WNW,299,0.0,6.0,33,0.00,,,0.00,851.0,meteohub,2013-04-22 16:22:00,
2013-04-22 12:27:00,53.1,24.8,30.66,East,80,0.0,7.0,33,0.00,,,0.00,914.0,meteohub,2013-04-22 16:27:00,
2013-04-22 12:32:00,53.1,23.9,30.66,ENE,69,1.0,7.0,32,0.00,,,0.00,724.0,meteohub,2013-04-22 16:32:00,
2013-04-22 12:37:00,52.9,23.9,30.65,WSW,249,1.0,7.0,32,0.00,,,0.00,911.0,meteohub,2013-04-22 16:37:00,
2013-04-22 12:42:00,53.2,26.2,30.65,SW,221,0.0,5.0,35,0.00,,,0.00,875.0,meteohub,2013-04-22 16:42:00,
2013-04-22 12:47:00,53.8,24.6,30.65,SSW,192,0.0,5.0,32,0.00,,,0.00,916.0,meteohub,2013-04-22 16:47:00,
2013-04-22 12:52:00,54.3,25.9,30.65,SE,140,1.0,4.0,33,0.00,,,0.00,914.0,meteohub,2013-04-22 16:52:00,
2013-04-22 12:57:00,54.9,27.7,30.64,SSE,151,1.0,5.0,35,0.00,,,0.00,900.0,meteohub,2013-04-22 16:57:00,
2013-04-22 13:02:00,55.2,22.6,30.64,SSE,157,1.0,5.0,28,0.00,,,0.00,889.0,meteohub,2013-04-22 17:02:00,
2013-04-22 13:07:00,55.0,22.5,30.64,NE,55,0.0,5.0,28,0.00,,,0.00,884.0,meteohub,2013-04-22 17:07:00,
2013-04-22 13:12:00,54.9,22.3,30.64,East,99,1.0,5.0,28,0.00,,,0.00,874.0,meteohub,2013-04-22 17:12:00,
2013-04-22 13:17:00,55.0,22.5,30.63,SE,140,3.0,5.0,28,0.00,,,0.00,870.0,meteohub,2013-04-22 17:17:00,
2013-04-22 13:22:00,55.2,26.6,30.63,NNW,342,0.0,5.0,33,0.00,,,0.00,872.0,meteohub,2013-04-22 17:22:00,
2013-04-22 13:27:00,55.6,23.9,30.63,East,96,3.0,5.0,29,0.00,,,0.00,874.0,meteohub,2013-04-22 17:27:00,
2013-04-22 13:32:00,55.8,23.9,30.62,ENE,65,0.0,5.0,29,0.00,,,0.00,870.0,meteohub,2013-04-22 17:32:00,
2013-04-22 13:37:00,55.9,22.5,30.62,ESE,109,0.0,5.0,27,0.00,,,0.00,875.0,meteohub,2013-04-22 17:37:00,
2013-04-22 13:42:00,56.3,23.5,30.62,West,274,1.0,5.0,28,0.00,,,0.00,858.0,meteohub,2013-04-22 17:42:00,
2013-04-22 13:47:00,56.7,23.9,30.62,NNE,32,0.0,6.0,28,0.00,,,0.00,854.0,meteohub,2013-04-22 17:47:00,
2013-04-22 13:52:00,57.0,23.4,30.62,SSW,209,1.0,7.0,27,0.00,,,0.00,847.0,meteohub,2013-04-22 17:52:00,
2013-04-22 13:57:00,56.5,24.6,30.61,WNW,290,3.0,7.0,29,0.00,,,0.00,824.0,meteohub,2013-04-22 17:57:00,
2013-04-22 14:02:00,56.8,25.7,30.61,NW,326,0.0,7.0,30,0.00,,,0.00,828.0,meteohub,2013-04-22 18:02:00,
2013-04-22 14:07:00,57.4,27.7,30.61,ESE,105,1.0,6.0,32,0.00,,,0.00,833.0,meteohub,2013-04-22 18:07:00,
2013-04-22 14:12:00,57.7,28.0,30.61,North,5,1.0,5.0,32,0.00,,,0.00,824.0,meteohub,2013-04-22 18:12:00,
2013-04-22 14:17:00,57.7,26.4,30.61,WSW,240,1.0,6.0,30,0.00,,,0.00,817.0,meteohub,2013-04-22 18:17:00,
2013-04-22 14:22:00,57.7,28.0,30.61,SW,217,3.0,6.0,32,0.00,,,0.00,805.0,meteohub,2013-04-22 18:22:00,
2013-04-22 14:27:00,57.7,27.3,30.60,SW,236,1.0,5.0,31,0.00,,,0.00,800.0,meteohub,2013-04-22 18:27:00,
2013-04-22 14:32:00,57.6,28.6,30.60,SW,219,2.0,6.0,33,0.00,,,0.00,791.0,meteohub,2013-04-22 18:32:00,
2013-04-22 14:37:00,57.4,25.3,30.59,WSW,252,2.0,6.0,29,0.00,,,0.00,784.0,meteohub,2013-04-22 18:37:00,
2013-04-22 14:42:00,56.8,28.0,30.59,NNW,336,1.0,6.0,33,0.00,,,0.00,777.0,meteohub,2013-04-22 18:42:00,
2013-04-22 14:47:00,57.4,28.6,30.58,WSW,257,1.0,6.0,33,0.00,,,0.00,770.0,meteohub,2013-04-22 18:47:00,
2013-04-22 14:52:00,57.7,28.0,30.58,South,171,2.0,6.0,32,0.00,,,0.00,759.0,meteohub,2013-04-22 18:52:00,
2013-04-22 14:57:00,57.9,27.5,30.58,West,263,0.0,5.0,31,0.00,,,0.00,754.0,meteohub,2013-04-22 18:57:00,
2013-04-22 15:02:00,58.3,28.6,30.57,SSW,194,1.0,6.0,32,0.00,,,0.00,744.0,meteohub,2013-04-22 19:02:00,
2013-04-22 15:07:00,58.6,30.4,30.56,West,259,0.0,6.0,34,0.00,,,0.00,731.0,meteohub,2013-04-22 19:07:00,
2013-04-22 15:12:00,58.8,28.9,30.56,North,355,0.0,5.0,32,0.00,,,0.00,724.0,meteohub,2013-04-22 19:12:00,
2013-04-22 15:17:00,58.8,25.7,30.56,SE,133,0.0,3.0,28,0.00,,,0.00,712.0,meteohub,2013-04-22 19:17:00,
2013-04-22 15:22:00,58.6,27.3,30.56,ENE,77,1.0,5.0,30,0.00,,,0.00,701.0,meteohub,2013-04-22 19:22:00,
2013-04-22 15:27:00,58.5,26.2,30.55,NNW,329,0.0,5.0,29,0.00,,,0.00,691.0,meteohub,2013-04-22 19:27:00,
2013-04-22 15:32:00,58.5,24.6,30.55,West,265,0.0,5.0,27,0.00,,,0.00,677.0,meteohub,2013-04-22 19:32:00,
2013-04-22 15:37:00,58.6,28.0,30.55,ESE,105,0.0,5.0,31,0.00,,,0.00,670.0,meteohub,2013-04-22 19:37:00,
2013-04-22 15:42:00,59.2,26.1,30.56,ESE,109,1.0,5.0,28,0.00,,,0.00,656.0,meteohub,2013-04-22 19:42:00,
2013-04-22 15:47:00,59.4,27.1,30.55,ESE,118,1.0,4.0,29,0.00,,,0.00,642.0,meteohub,2013-04-22 19:47:00,
2013-04-22 15:52:00,59.2,25.2,30.55,ENE,66,2.0,4.0,27,0.00,,,0.00,631.0,meteohub,2013-04-22 19:52:00,
2013-04-22 15:57:00,59.2,27.0,30.55,NE,45,2.0,6.0,29,0.00,,,0.00,582.0,meteohub,2013-04-22 19:57:00,
2013-04-22 16:02:00,59.4,27.9,30.55,SSE,153,0.0,6.0,30,0.00,,,0.00,545.0,meteohub,2013-04-22 20:02:00,
2013-04-22 16:07:00,59.5,27.3,30.55,SE,144,1.0,7.0,29,0.00,,,0.00,482.0,meteohub,2013-04-22 20:07:00,
2013-04-22 16:12:00,59.4,27.1,30.54,East,84,1.0,8.0,29,0.00,,,0.00,343.0,meteohub,2013-04-22 20:12:00,
2013-04-22 16:17:00,59.2,27.0,30.54,South,185,0.0,8.0,29,0.00,,,0.00,410.0,meteohub,2013-04-22 20:17:00,
2013-04-22 16:22:00,59.4,27.1,30.54,NE,38,1.0,8.0,29,0.00,,,0.00,265.0,meteohub,2013-04-22 20:22:00,
2013-04-22 16:27:00,59.2,25.2,30.54,SSE,154,4.0,4.0,27,0.00,,,0.00,439.0,meteohub,2013-04-22 20:27:00,
2013-04-22 16:32:00,59.2,26.1,30.54,North,350,2.0,10.0,28,0.00,,,0.00,436.0,meteohub,2013-04-22 20:32:00,
2013-04-22 16:37:00,59.2,27.7,30.54,East,81,2.0,10.0,30,0.00,,,0.00,195.0,meteohub,2013-04-22 20:37:00,
2013-04-22 16:42:00,59.0,26.8,30.53,West,272,1.0,10.0,29,0.00,,,0.00,443.0,meteohub,2013-04-22 20:42:00,
2013-04-22 16:47:00,59.0,25.9,30.53,East,92,3.0,5.0,28,0.00,,,0.00,471.0,meteohub,2013-04-22 20:47:00,
2013-04-22 16:52:00,58.6,25.7,30.53,ENE,69,1.0,5.0,28,0.00,,,0.00,388.0,meteohub,2013-04-22 20:52:00,
2013-04-22 16:57:00,58.6,24.8,30.53,SW,221,0.0,5.0,27,0.00,,,0.00,387.0,meteohub,2013-04-22 20:57:00,
2013-04-22 17:02:00,58.5,26.2,30.53,ESE,102,1.0,5.0,29,0.00,,,0.00,315.0,meteohub,2013-04-22 21:02:00,
2013-04-22 17:07:00,58.3,25.3,30.53,East,98,0.0,3.0,28,0.00,,,0.00,271.0,meteohub,2013-04-22 21:07:00,
2013-04-22 17:12:00,58.5,26.2,30.53,South,190,0.0,3.0,29,0.00,,,0.00,188.0,meteohub,2013-04-22 21:12:00,
2013-04-22 17:17:00,58.5,25.5,30.53,ENE,65,1.0,3.0,28,0.00,,,0.00,221.0,meteohub,2013-04-22 21:17:00,
2013-04-22 17:22:00,58.3,26.2,30.52,SSW,213,0.0,3.0,29,0.00,,,0.00,200.0,meteohub,2013-04-22 21:22:00,
2013-04-22 17:27:00,58.3,27.0,30.53,East,80,1.0,3.0,30,0.00,,,0.00,146.0,meteohub,2013-04-22 21:27:00,
2013-04-22 17:32:00,58.5,26.2,30.52,ENE,57,0.0,3.0,29,0.00,,,0.00,202.0,meteohub,2013-04-22 21:32:00,
2013-04-22 17:37:00,58.3,26.2,30.52,East,100,0.0,3.0,29,0.00,,,0.00,281.0,meteohub,2013-04-22 21:37:00,
2013-04-22 17:42:00,58.3,27.0,30.52,WSW,248,0.0,3.0,30,0.00,,,0.00,188.0,meteohub,2013-04-22 21:42:00,
2013-04-22 17:47:00,58.5,27.1,30.52,SSE,165,3.0,3.0,30,0.00,,,0.00,86.0,meteohub,2013-04-22 21:47:00,
2013-04-22 17:52:00,58.5,26.2,30.52,ENE,74,0.0,5.0,29,0.00,,,0.00,230.0,meteohub,2013-04-22 21:52:00,
2013-04-22 17:57:00,58.3,26.2,30.52,WSW,243,2.0,5.0,29,0.00,,,0.00,137.0,meteohub,2013-04-22 21:57:00,
2013-04-22 18:02:00,58.1,27.7,30.52,SSE,159,0.0,5.0,31,0.00,,,0.00,56.0,meteohub,2013-04-22 22:02:00,
2013-04-22 18:07:00,57.9,26.6,30.52,East,83,1.0,3.0,30,0.00,,,0.00,81.0,meteohub,2013-04-22 22:07:00,
2013-04-22 18:12:00,57.6,26.4,30.51,WSW,248,1.0,5.0,30,0.00,,,0.00,42.0,meteohub,2013-04-22 22:12:00,
2013-04-22 18:17:00,57.2,26.8,30.51,WSW,254,0.0,5.0,31,0.00,,,0.00,40.0,meteohub,2013-04-22 22:17:00,
2013-04-22 18:22:00,57.0,26.6,30.52,SW,235,1.0,5.0,31,0.00,,,0.00,39.0,meteohub,2013-04-22 22:22:00,
2013-04-22 18:27:00,56.8,28.0,30.52,ENE,74,0.0,4.0,33,0.00,,,0.00,42.0,meteohub,2013-04-22 22:27:00,
2013-04-22 18:32:00,56.7,27.1,30.52,ENE,66,0.0,5.0,32,0.00,,,0.00,39.0,meteohub,2013-04-22 22:32:00,
2013-04-22 18:37:00,56.5,27.0,30.51,East,84,0.0,5.0,32,0.00,,,0.00,33.0,meteohub,2013-04-22 22:37:00,
2013-04-22 18:42:00,56.3,28.2,30.51,East,95,0.0,5.0,34,0.00,,,0.00,30.0,meteohub,2013-04-22 22:42:00,
2013-04-22 18:47:00,56.1,28.0,30.51,SSW,209,1.0,3.0,34,0.00,,,0.00,28.0,meteohub,2013-04-22 22:47:00,
2013-04-22 18:52:00,55.9,28.0,30.51,NNW,338,1.0,3.0,34,0.00,,,0.00,26.0,meteohub,2013-04-22 22:52:00,
2013-04-22 18:57:00,55.8,27.9,30.51,SW,217,0.0,5.0,34,0.00,,,0.00,25.0,meteohub,2013-04-22 22:57:00,
2013-04-22 19:02:00,55.6,28.4,30.51,SE,136,0.0,5.0,35,0.00,,,0.00,21.0,meteohub,2013-04-22 23:02:00,
2013-04-22 19:07:00,55.2,27.3,30.51,East,97,0.0,5.0,34,0.00,,,0.00,19.0,meteohub,2013-04-22 23:07:00,
2013-04-22 19:12:00,55.0,27.9,30.51,WSW,246,0.0,4.0,35,0.00,,,0.00,18.0,meteohub,2013-04-22 23:12:00,
2013-04-22 19:17:00,54.9,29.1,30.51,SW,232,0.0,4.0,37,0.00,,,0.00,14.0,meteohub,2013-04-22 23:17:00,
2013-04-22 19:22:00,54.5,27.3,30.51,ESE,115,1.0,2.0,35,0.00,,,0.00,12.0,meteohub,2013-04-22 23:22:00,
2013-04-22 19:27:00,54.3,28.6,30.51,SSW,204,3.0,3.0,37,0.00,,,0.00,11.0,meteohub,2013-04-22 23:27:00,
2013-04-22 19:32:00,54.1,27.7,30.51,SW,220,0.0,3.0,36,0.00,,,0.00,9.0,meteohub,2013-04-22 23:32:00,
2013-04-22 19:37:00,54.0,28.2,30.51,SW,218,1.0,3.0,37,0.00,,,0.00,5.0,meteohub,2013-04-22 23:37:00,
2013-04-22 19:42:00,53.6,28.6,30.51,SW,218,0.0,3.0,38,0.00,,,0.00,5.0,meteohub,2013-04-22 23:42:00,
2013-04-22 19:47:00,53.2,28.2,30.51,SW,218,0.0,2.0,38,0.00,,,0.00,0.0,meteohub,2013-04-22 23:47:00,
2013-04-22 19:52:00,52.9,28.6,30.52,North,350,0.0,2.0,39,0.00,,,0.00,0.0,meteohub,2013-04-22 23:52:00,
2013-04-22 19:57:00,52.5,30.0,30.52,NE,47,1.0,2.0,42,0.00,,,0.00,0.0,meteohub,2013-04-22 23:57:00,
2013-04-22 20:02:00,52.3,31.1,30.52,SW,225,0.0,4.0,44,0.00,,,0.00,0.0,meteohub,2013-04-23 00:02:00,
2013-04-22 20:07:00,52.0,31.8,30.52,SSW,207,2.0,4.0,46,0.00,,,0.00,0.0,meteohub,2013-04-23 00:07:00,
2013-04-22 20:12:00,51.6,32.5,30.52,SSW,209,0.0,4.0,48,0.00,,,0.00,0.0,meteohub,2013-04-23 00:12:00,
2013-04-22 20:17:00,51.3,32.2,30.52,SSW,202,0.0,3.0,48,0.00,,,0.00,0.0,meteohub,2013-04-23 00:17:00,
2013-04-22 20:22:00,51.1,32.5,30.52,SSW,207,0.0,3.0,49,0.00,,,0.00,0.0,meteohub,2013-04-23 00:22:00,
2013-04-22 20:27:00,50.7,33.3,30.52,SSW,207,0.0,2.0,51,0.00,,,0.00,0.0,meteohub,2013-04-23 00:27:00,
2013-04-22 20:32:00,50.4,32.9,30.53,SSW,199,0.0,1.0,51,0.00,,,0.00,0.0,meteohub,2013-04-23 00:32:00,
2013-04-22 20:37:00,50.0,33.1,30.53,SSW,198,0.0,2.0,52,0.00,,,0.00,0.0,meteohub,2013-04-23 00:37:00,
2013-04-22 20:42:00,49.6,33.3,30.53,SSW,198,0.0,2.0,53,0.00,,,0.00,0.0,meteohub,2013-04-23 00:42:00,
2013-04-22 20:47:00,49.5,33.1,30.53,SSW,201,0.0,2.0,53,0.00,,,0.00,0.0,meteohub,2013-04-23 00:47:00,
2013-04-22 20:52:00,49.1,33.3,30.53,SSW,201,0.0,2.0,54,0.00,,,0.00,0.0,meteohub,2013-04-23 00:52:00,
2013-04-22 20:57:00,48.9,33.1,30.53,SSW,194,0.0,2.0,54,0.00,,,0.00,0.0,meteohub,2013-04-23 00:57:00,
2013-04-22 21:02:00,48.6,32.7,30.54,SW,220,0.0,3.0,54,0.00,,,0.00,0.0,meteohub,2013-04-23 01:02:00,
2013-04-22 21:07:00,48.4,32.5,30.54,SSW,211,3.0,3.0,54,0.00,,,0.00,0.0,meteohub,2013-04-23 01:07:00,
2013-04-22 21:12:00,48.2,32.4,30.54,ESE,113,1.0,3.0,54,0.00,,,0.00,0.0,meteohub,2013-04-23 01:12:00,
2013-04-22 21:17:00,48.0,31.6,30.54,South,184,0.0,3.0,53,0.00,,,0.00,0.0,meteohub,2013-04-23 01:17:00,
2013-04-22 21:22:00,47.8,31.5,30.54,SSW,213,0.0,3.0,53,0.00,,,0.00,0.0,meteohub,2013-04-23 01:22:00,
2013-04-22 21:27:00,47.7,31.8,30.54,SW,226,0.0,4.0,54,0.00,,,0.00,0.0,meteohub,2013-04-23 01:27:00,
2013-04-22 21:32:00,47.5,31.6,30.54,SSW,199,0.0,4.0,54,0.00,,,0.00,0.0,meteohub,2013-04-23 01:32:00,
2013-04-22 21:37:00,47.3,31.5,30.54,South,171,1.0,3.0,54,0.00,,,0.00,0.0,meteohub,2013-04-23 01:37:00,
2013-04-22 21:42:00,47.1,31.8,30.54,SE,136,0.0,3.0,55,0.00,,,0.00,0.0,meteohub,2013-04-23 01:42:00,
2013-04-22 21:47:00,46.9,31.6,30.54,SSW,202,0.0,3.0,55,0.00,,,0.00,0.0,meteohub,2013-04-23 01:47:00,
2013-04-22 21:52:00,46.8,31.8,30.55,South,188,0.0,3.0,56,0.00,,,0.00,0.0,meteohub,2013-04-23 01:52:00,
2013-04-22 21:57:00,46.6,31.6,30.55,West,279,0.0,4.0,56,0.00,,,0.00,0.0,meteohub,2013-04-23 01:57:00,
2013-04-22 22:02:00,46.2,31.8,30.55,SSW,213,0.0,4.0,57,0.00,,,0.00,0.0,meteohub,2013-04-23 02:02:00,
2013-04-22 22:07:00,46.0,31.6,30.55,SSW,212,0.0,2.0,57,0.00,,,0.00,0.0,meteohub,2013-04-23 02:07:00,
2013-04-22 22:12:00,45.9,32.0,30.55,SSW,207,0.0,2.0,58,0.00,,,0.00,0.0,meteohub,2013-04-23 02:12:00,
2013-04-22 22:17:00,45.7,31.8,30.55,SSW,208,0.0,2.0,58,0.00,,,0.00,0.0,meteohub,2013-04-23 02:17:00,
2013-04-22 22:22:00,45.3,32.2,30.55,SSE,163,0.0,2.0,60,0.00,,,0.00,0.0,meteohub,2013-04-23 02:22:00,
2013-04-22 22:27:00,45.3,32.7,30.55,South,174,0.0,5.0,61,0.00,,,0.00,0.0,meteohub,2013-04-23 02:27:00,
2013-04-22 22:32:00,45.1,32.0,30.55,South,190,0.0,5.0,60,0.00,,,0.00,0.0,meteohub,2013-04-23 02:32:00,
2013-04-22 22:37:00,45.0,32.4,30.55,South,190,0.0,2.0,61,0.00,,,0.00,0.0,meteohub,2013-04-23 02:37:00,
2013-04-22 22:42:00,44.6,32.4,30.54,South,190,0.0,2.0,62,0.00,,,0.00,0.0,meteohub,2013-04-23 02:42:00,
2013-04-22 22:47:00,44.2,32.0,30.55,SSW,192,0.0,1.0,62,0.00,,,0.00,0.0,meteohub,2013-04-23 02:47:00,
2013-04-22 22:52:00,44.1,32.4,30.55,SSW,192,0.0,2.0,63,0.00,,,0.00,0.0,meteohub,2013-04-23 02:52:00,
2013-04-22 22:57:00,43.9,32.5,30.55,SSW,192,0.0,2.0,64,0.00,,,0.00,0.0,meteohub,2013-04-23 02:57:00,
2013-04-22 23:02:00,43.5,32.5,30.54,SSW,192,0.0,1.0,65,0.00,,,0.00,0.0,meteohub,2013-04-23 03:02:00,
2013-04-22 23:07:00,43.2,32.5,30.55,SSW,192,0.0,1.0,66,0.00,,,0.00,0.0,meteohub,2013-04-23 03:07:00,
2013-04-22 23:12:00,43.0,32.7,30.54,ESE,103,0.0,0.0,67,0.00,,,0.00,0.0,meteohub,2013-04-23 03:12:00,
2013-04-22 23:17:00,42.6,32.7,30.54,ESE,103,0.0,3.0,68,0.00,,,0.00,0.0,meteohub,2013-04-23 03:17:00,
2013-04-22 23:22:00,42.4,33.1,30.54,South,188,0.0,3.0,69,0.00,,,0.00,0.0,meteohub,2013-04-23 03:22:00,
2013-04-22 23:27:00,42.1,32.7,30.54,South,188,0.0,1.0,69,0.00,,,0.00,0.0,meteohub,2013-04-23 03:27:00,
2013-04-22 23:32:00,41.7,32.7,30.54,South,188,0.0,1.0,70,0.00,,,0.00,0.0,meteohub,2013-04-23 03:32:00,
2013-04-22 23:37:00,41.4,32.4,30.54,South,188,0.0,0.0,70,0.00,,,0.00,0.0,meteohub,2013-04-23 03:37:00,
2013-04-22 23:42:00,41.2,32.5,30.54,South,188,0.0,0.0,71,0.00,,,0.00,0.0,meteohub,2013-04-23 03:42:00,
2013-04-22 23:47:00,40.6,32.7,30.54,South,188,0.0,0.0,73,0.00,,,0.00,0.0,meteohub,2013-04-23 03:47:00,
2013-04-22 23:52:00,40.5,32.5,30.54,South,188,0.0,0.0,73,0.00,,,0.00,0.0,meteohub,2013-04-23 03:52:00,
2013-04-22 23:57:00,40.3,32.4,30.55,South,188,0.0,0.0,73,0.00,,,0.00,0.0,meteohub,2013-04-23 03:57:00,